Location: ??????????
(41.2581°N, 22.8006°E)
Time: 04:32:39
(UTC+00:00)

GEOS 3 Rocket - Pass Details

Date: 22 March 2026
Orbit: 767 x 846 km, 115.0° (Epoch: 17 April)

Event Time Altitude Azimuth Distance (km) Brightness Sun altitude
Rises 01:52:40 0° 53° (NE) 3,407 8.1 -29.0°
Reaches altitude 10° 01:55:57 10° 74° (ENE) 2,461 7.0 -28.4°
Maximum altitude 01:59:12 16° 112° (ESE) 2,042 6.1 -27.9°
Drops below altitude 10° 02:02:24 10° 150° (SSE) 2,432 6.1 -27.4°
Enters shadow 02:03:38 - 160° (SSE) 2,748 6.3 -27.2°
